Theta_e
320 320 320 320 319 320 321 320 321 322 322 319 320 322 321 322 323 325 325 324 326 328 327 329 332 332 332 332 333 333 332 334 334 332 335 335 332 330 325 320 319 317 318 318 323 330 332 327 324 325 324 327 327 328 331 332 332 333 334 334 334 333 331 328 325 325 322 321 318 316 320 321 321 322 322 322 320 321 324 323 321 322 325 325 325 323 316 319 324 321 313 310 310 309 309 309 310
321 320 320 320 319 320 322 321 320 320 319 318 319 321 321 322 323 326 326 326 330 330 327 331 332 331 332 332 332 332 334 334 333 335 336 335 333 332 324 319 319 317 316 317 321 329 331 324 319 317 314 322 325 326 331 332 332 333 334 334 334 333 330 326 325 326 324 323 322 319 321 322 322 324 323 323 322 320 323 324 323 321 325 326 323 320 319 320 316 315 314 312 311 309 310 311 311
320 319 319 320 319 320 321 321 319 318 317 317 318 320 321 323 326 326 326 329 332 329 329 332 331 332 332 331 332 333 335 333 332 336 336 335 334 329 321 318 318 317 316 318 321 324 325 318 314 313 314 323 325 325 331 333 333 333 334 333 333 332 329 325 324 326 325 322 324 321 320 321 321 324 322 321 320 319 322 323 323 322 324 324 319 319 321 321 316 318 321 316 311 311 311 311 311
320 320 319 320 320 320 321 321 320 318 317 316 317 319 320 324 326 325 329 331 331 329 331 332 332 332 332 333 333 332 335 334 334 337 335 335 334 325 317 317 317 317 317 317 317 317 316 313 312 315 320 327 327 326 330 332 333 333 333 332 331 330 327 324 320 323 324 321 323 321 316 318 319 321 322 319 318 317 318 320 321 321 322 321 318 321 322 320 319 322 326 320 312 311 311 312 312
320 320 318 319 321 322 321 321 321 319 318 318 317 319 319 323 325 327 331 331 329 327 330 332 333 332 332 334 333 333 335 335 336 336 335 335 331 320 316 317 317 317 316 316 316 315 313 311 314 319 325 330 330 328 330 332 333 333 332 331 330 328 324 321 320 321 323 322 321 319 316 317 317 319 321 320 319 317 316 317 320 320 319 319 320 322 320 318 319 319 320 318 312 311 312 312 313
320 319 319 318 320 321 321 319 319 319 320 320 319 319 318 321 325 329 331 330 327 325 328 331 333 332 334 334 332 334 335 335 337 336 335 332 325 317 317 317 317 317 316 317 316 315 313 313 317 323 327 331 331 331 331 332 333 332 332 331 329 326 321 319 321 321 322 322 318 318 319 320 321 321 320 317 317 317 316 315 317 318 316 318 324 325 322 318 315 313 312 313 312 312 312 312 313
320 320 319 319 319 319 320 318 318 319 319 319 318 318 318 321 325 329 330 329 326 324 328 330 332 333 334 333 333 333 332 335 336 336 334 327 320 318 318 318 317 316 316 315 314 317 316 315 320 324 327 331 332 332 332 331 332 332 331 330 328 324 320 319 322 323 324 324 321 321 322 322 323 321 319 317 316 316 315 313 314 314 314 320 324 325 325 322 316 312 312 312 312 312 312 312 313
320 320 320 319 321 319 319 318 319 320 318 317 317 317 318 321 325 330 330 329 325 325 329 329 330 331 332 333 335 333 331 334 335 336 331 322 319 319 318 318 317 316 315 313 314 319 319 317 322 324 326 332 332 331 332 330 331 330 329 328 326 321 318 320 322 322 325 325 324 324 321 318 317 316 316 314 313 312 311 312 313 313 315 320 321 322 326 326 320 314 312 312 312 312 312 312 313
319 320 320 320 321 319 318 318 319 319 318 317 316 316 316 319 326 330 329 326 323 326 330 330 329 328 331 333 335 334 332 334 335 336 329 322 320 319 318 317 317 315 315 313 312 321 322 318 323 325 326 331 331 330 330 329 329 327 326 326 322 318 318 321 321 321 323 321 321 320 316 313 312 313 312 310 309 309 309 310 311 312 315 318 318 320 324 325 322 316 312 312 312 312 312 312 314
319 319 321 321 320 319 317 317 319 318 318 317 316 317 317 320 326 329 328 325 323 327 331 329 327 327 332 335 335 334 333 333 335 336 329 322 321 319 319 317 317 315 314 312 312 323 324 318 323 326 326 329 330 329 328 326 325 324 323 323 319 316 317 319 317 321 323 321 319 315 312 311 310 310 309 309 309 309 310 311 312 312 313 314 315 316 320 321 318 314 312 312 312 313 313 313 314
320 319 320 321 319 319 317 317 318 319 318 317 317 317 317 322 325 326 325 323 323 329 330 327 326 328 333 335 335 334 332 333 336 335 329 323 321 319 319 317 316 314 314 312 312 320 321 318 322 325 325 328 329 327 324 321 322 322 319 318 314 312 313 315 314 318 324 324 322 317 311 309 309 308 308 308 309 310 311 313 314 313 312 312 312 313 315 316 314 312 313 313 313 314 314 315 315
322 321 320 321 320 320 319 317 318 320 319 318 320 318 318 322 325 324 323 322 324 328 328 327 325 327 333 334 335 334 332 334 336 334 329 324 321 319 319 318 316 314 313 312 311 314 315 317 317 322 324 323 325 324 321 319 319 317 314 312 311 311 310 311 313 316 322 326 327 322 314 309 308 308 308 309 309 312 312 313 314 313 313 312 312 312 312 313 313 313 313 314 314 315 315 316 316
322 321 320 321 320 320 319 318 318 319 320 320 321 319 319 322 324 324 323 323 324 327 326 326 325 324 331 333 334 334 333 335 335 333 330 325 321 320 320 318 317 315 314 312 311 311 311 311 311 318 322 319 320 320 318 318 316 314 313 311 310 311 310 310 314 316 320 327 328 322 315 310 308 308 309 310 311 312 313 313 313 313 313 313 313 313 313 313 314 314 314 315 315 316 316 316 317
321 320 321 321 319 319 319 318 319 318 319 320 319 319 320 322 322 322 322 323 324 325 324 324 325 324 328 330 332 334 334 335 335 333 329 326 322 320 321 319 318 317 315 313 311 310 310 309 309 313 319 321 319 315 316 317 315 315 313 311 309 309 310 309 313 315 317 322 321 315 312 310 308 308 310 311 312 313 314 315 315 315 315 314 314 313 314 314 314 315 315 316 316 316 317 317 318
319 319 321 321 319 319 319 318 318 318 319 319 318 318 319 320 319 320 321 322 323 323 322 324 324 323 324 325 331 335 334 335 335 332 330 328 323 322 323 321 320 319 317 315 312 311 310 309 309 309 314 319 319 316 315 314 314 313 311 310 309 309 309 309 311 312 312 313 312 311 311 310 308 309 310 311 313 314 315 316 316 315 315 315 315 315 315 315 315 316 316 317 317 317 317 318 318
318 319 321 321 319 319 319 318 318 318 319 318 317 318 320 319 318 319 319 321 322 321 323 325 324 322 323 322 327 333 334 335 335 333 331 329 325 324 326 324 322 320 318 317 314 311 310 310 310 308 310 311 314 317 314 312 312 311 310 309 309 309 309 309 309 309 309 309 309 309 309 309 309 309 311 312 313 315 316 316 316 316 316 316 315 316 315 316 316 317 317 317 318 318 318 319 319
318 320 321 321 320 320 319 318 318 317 318 317 315 317 321 320 317 318 318 319 320 321 323 325 323 322 323 321 322 331 335 335 335 334 331 331 328 326 328 328 325 322 320 319 317 313 311 310 310 309 310 309 310 312 311 311 310 309 309 309 309 309 308 308 308 308 308 308 309 308 308 308 308 309 311 312 314 315 316 316 317 317 316 316 316 316 316 317 317 318 318 318 318 319 319 320 320
319 321 321 321 321 319 318 318 317 316 317 316 314 316 321 321 317 317 318 319 320 321 323 323 323 323 322 321 321 331 335 334 336 335 333 332 329 328 329 329 328 325 323 320 319 316 312 310 310 310 310 310 310 310 310 310 309 309 309 309 309 308 308 308 308 308 308 308 308 308 308 308 308 310 311 312 314 315 316 317 317 317 317 317 317 317 317 318 318 318 319 319 319 320 320 321 321
319 320 321 321 320 318 316 315 315 315 315 315 314 314 318 320 317 318 319 320 321 321 324 323 325 324 322 320 321 330 335 334 336 335 334 332 330 330 330 330 329 328 326 323 321 319 316 312 311 310 310 310 310 310 309 309 309 309 309 309 309 309 308 308 308 308 308 308 307 307 307 307 308 309 311 313 314 315 316 316 317 317 317 317 317 317 318 318 318 319 319 319 319 320 321 322 322
315 319 322 320 317 316 314 313 313 313 313 314 315 313 315 317 317 319 320 321 322 320 323 324 326 325 323 321 320 328 333 334 336 335 335 333 331 330 330 330 329 329 328 325 323 321 319 316 313 312 311 311 310 310 309 309 309 309 309 309 309 309 309 308 309 308 308 308 307 307 307 307 308 309 311 313 314 315 316 316 316 316 317 317 317 318 318 318 319 319 319 320 320 321 322 322 322
314 317 320 316 314 316 314 312 312 311 311 313 314 313 314 315 315 318 319 320 321 320 321 321 323 323 321 322 321 326 332 334 335 335 335 334 332 331 330 330 329 329 328 327 325 323 322 319 317 316 315 314 313 312 311 310 310 309 310 309 310 309 309 309 309 308 308 308 307 307 307 307 308 310 311 313 314 315 316 316 316 316 317 317 317 318 318 318 319 319 320 320 321 321 322 323 322
314 314 315 314 314 315 314 312 312 311 311 312 313 313 314 314 314 317 319 318 319 320 320 318 319 320 318 320 321 325 331 333 334 335 334 334 333 332 331 330 329 329 328 328 326 324 323 321 320 319 319 318 317 315 313 312 312 311 310 309 310 309 309 310 309 309 309 308 307 307 307 307 308 310 311 313 314 315 315 316 316 316 317 317 317 318 318 318 319 320 320 321 322 322 323 323 322
316 313 312 312 313 314 314 312 313 312 311 312 313 313 313 314 315 315 317 318 319 319 318 317 318 318 317 319 321 323 329 332 333 335 334 334 333 333 333 331 330 329 329 329 328 326 324 322 322 321 321 321 320 318 315 314 313 312 311 310 310 310 310 310 310 310 310 309 308 307 307 307 308 310 311 313 314 315 315 316 316 317 317 317 317 318 318 319 320 320 322 322 322 323 324 323 322
319 316 312 313 313 314 315 313 315 314 312 312 312 312 313 314 315 314 315 317 317 317 317 317 316 317 317 318 320 321 325 327 330 333 335 334 333 333 334 333 331 330 329 329 329 327 325 323 322 322 322 322 322 321 319 316 314 314 313 312 311 311 310 310 311 311 311 310 310 309 308 307 308 310 312 313 314 315 316 316 316 317 317 317 317 318 319 320 321 322 323 323 323 324 324 324 322
321 319 314 314 315 314 316 316 317 316 313 313 311 312 313 313 313 313 314 315 316 316 316 316 316 316 318 318 320 321 323 326 330 333 335 335 334 334 334 334 333 332 330 329 329 329 327 324 323 323 322 322 323 323 322 319 315 315 315 315 313 311 311 311 312 312 312 312 312 311 310 309 310 311 312 313 315 315 316 316 317 317 318 318 319 320 321 322 322 323 323 323 324 324 324 324 323
321 319 316 315 316 316 317 317 318 317 314 312 312 313 313 312 312 313 314 315 315 315 316 316 316 316 317 318 320 321 323 325 328 331 333 334 334 334 334 334 333 332 330 329 328 329 329 327 325 323 322 322 323 323 324 322 318 316 317 317 316 314 312 312 313 314 314 314 313 313 312 312 312 313 313 314 315 316 316 317 318 319 320 321 321 322 322 323 323 323 323 324 324 324 324 324 324
318 318 317 316 317 316 316 318 318 318 316 312 312 314 313 310 312 315 316 315 315 315 315 316 316 316 316 318 320 321 323 323 324 328 332 334 334 334 334 333 333 332 331 329 329 329 329 329 328 326 323 323 323 324 324 324 321 318 319 319 319 318 315 314 314 315 317 317 316 315 314 313 314 315 315 316 317 317 318 319 320 321 322 322 322 323 323 323 323 323 323 324 324 324 324 324 324
317 318 320 319 319 318 318 319 318 317 317 313 312 313 312 310 311 315 315 315 315 314 315 316 316 317 316 317 319 321 322 323 325 329 331 331 331 332 332 332 332 332 331 330 329 329 328 329 330 329 327 325 325 325 324 324 323 322 321 320 320 320 318 317 316 316 318 318 318 318 317 317 317 318 318 319 319 320 320 321 322 322 323 322 322 322 323 323 323 323 323 323 323 322 322 322 321
318 319 322 323 321 322 322 319 316 315 316 313 311 314 314 311 312 315 315 314 315 314 314 315 316 317 317 317 318 320 321 322 325 328 328 328 330 330 330 330 330 331 330 330 329 329 328 329 330 330 330 328 327 327 325 325 324 324 323 322 321 320 320 320 318 318 318 319 319 320 320 320 320 321 321 321 322 322 322 322 322 322 323 322 322 323 323 323 322 322 322 321 321 319 319 320 319
321 318 321 323 324 324 318 314 312 313 314 311 312 316 318 315 313 314 314 314 314 314 314 315 316 317 317 317 317 319 319 320 322 324 324 325 327 328 327 328 328 328 329 329 329 328 329 329 329 330 331 330 329 328 326 325 325 324 324 323 322 321 320 321 320 320 319 319 320 320 321 321 321 322 322 322 322 322 322 322 323 323 323 323 323 323 322 321 321 321 321 320 321 320 320 320 320
322 320 320 322 325 324 314 311 312 313 313 311 311 315 318 318 316 314 313 313 314 315 315 314 315 316 316 316 317 317 317 318 320 321 322 321 323 324 325 325 325 326 327 328 328 328 329 329 329 330 330 331 329 328 327 326 326 325 325 324 323 322 321 322 322 321 320 320 320 320 321 321 322 322 322 322 322 322 323 323 324 323 323 323 322 321 320 320 319 320 320 320 321 321 321 322 321
321 324 325 322 323 325 319 314 312 313 313 310 312 315 316 317 315 313 312 312 313 316 317 314 314 315 316 316 316 317 317 318 319 320 321 321 321 321 321 323 323 324 326 327 328 328 329 330 330 329 329 330 330 328 327 327 327 326 326 325 325 324 323 323 323 322 321 321 321 320 321 321 321 322 322 322 322 322 323 324 324 324 322 320 320 319 319 320 320 320 321 320 320 321 321 321 321
320 323 327 322 321 323 321 314 309 311 311 310 313 314 315 315 312 310 311 311 312 315 318 315 314 314 315 316 315 316 318 319 318 319 319 320 320 318 318 321 322 323 324 325 326 327 329 329 329 327 327 329 329 329 328 328 328 327 327 327 326 326 324 325 324 323 322 321 321 321 321 321 322 322 322 322 322 322 323 323 323 322 320 319 320 320 319 321 320 320 322 321 319 321 322 321 322
322 321 325 322 318 319 321 317 310 310 311 311 312 312 313 314 312 310 310 311 311 315 318 316 314 313 314 315 315 316 317 317 317 316 317 317 318 318 317 319 321 323 323 324 325 326 327 328 327 327 326 328 329 329 329 329 329 329 329 328 328 327 326 326 325 324 323 323 323 322 322 322 322 322 323 322 322 322 322 322 322 322 322 321 322 321 320 322 323 322 322 322 320 320 321 320 320
324 322 324 322 317 317 322 320 312 309 311 311 312 312 312 313 313 313 312 310 312 315 317 315 314 314 313 314 315 315 315 315 315 315 316 316 317 317 317 317 319 321 322 323 324 324 325 326 327 327 327 327 328 329 329 329 330 330 330 329 329 328 327 326 325 325 325 325 325 325 324 324 324 323 323 324 323 323 323 323 322 323 324 323 323 322 322 323 324 323 322 321 320 318 320 319 317
325 324 324 324 320 318 316 316 311 308 311 312 312 313 312 313 313 314 313 310 312 316 315 313 313 313 313 313 314 314 314 315 315 315 316 316 317 317 316 316 317 319 321 322 322 323 324 325 326 327 327 328 328 328 329 329 329 330 330 330 330 329 328 327 325 325 325 325 325 326 325 325 325 325 324 324 324 323 324 324 322 323 324 324 323 323 323 323 324 323 320 320 320 320 319 318 316
324 324 323 322 322 320 313 313 312 308 310 313 312 313 313 312 313 314 313 310 311 314 314 314 313 312 313 313 313 314 314 315 315 315 315 316 317 317 316 316 316 317 319 320 320 322 322 324 325 325 326 327 327 327 327 328 328 328 329 329 329 329 329 327 325 325 324 324 325 325 324 325 326 326 325 325 325 324 324 324 323 323 324 323 322 323 324 323 322 321 319 320 322 323 320 316 315
322 323 323 321 320 320 315 313 312 309 310 314 313 312 312 312 313 314 313 311 312 313 313 315 314 313 313 313 313 313 314 314 315 315 315 316 316 316 317 317 317 316 317 317 318 319 321 322 323 324 325 326 326 325 325 326 326 326 326 326 327 328 328 327 325 324 323 323 324 324 324 325 325 326 326 325 325 325 324 323 323 324 324 323 323 324 323 320 318 320 321 321 322 324 323 317 313
321 321 322 323 320 318 316 312 310 309 312 315 314 312 314 313 313 314 314 312 312 313 313 314 314 313 313 313 314 314 314 314 314 315 315 315 315 316 316 316 317 316 316 316 317 317 319 320 321 322 323 324 325 325 325 325 325 325 325 325 326 326 326 325 324 324 324 325 325 325 324 324 324 325 326 326 326 325 324 324 324 324 324 324 324 324 322 319 319 320 321 322 324 325 323 316 313
320 320 322 324 317 318 321 313 309 310 311 313 313 313 314 315 314 315 316 314 313 313 312 312 313 313 313 313 314 314 314 314 314 314 314 314 315 315 316 316 316 317 316 316 316 316 317 317 318 319 320 322 323 324 324 324 324 325 325 326 326 326 327 326 326 326 326 327 327 326 325 324 324 325 326 326 326 325 325 325 325 325 324 324 323 323 320 319 320 321 320 321 323 323 320 315 314
318 319 323 322 315 317 320 313 310 312 311 310 311 315 317 318 318 318 317 314 312 312 311 311 312 313 313 313 313 314 314 315 314 314 314 314 314 314 315 315 316 316 316 316 316 316 315 315 315 317 318 319 320 321 322 323 325 325 326 326 326 326 327 326 327 326 326 327 327 327 326 326 325 324 325 325 325 325 324 325 325 325 324 323 322 321 320 320 321 322 322 320 319 320 320 317 315
318 317 319 321 317 316 315 312 312 315 315 311 311 319 323 319 319 320 318 315 312 312 311 311 312 312 313 313 314 315 315 315 315 315 315 314 314 314 314 314 315 315 315 315 315 315 314 314 314 315 316 317 318 319 320 322 323 324 325 325 325 326 325 325 325 325 325 325 325 326 326 327 325 323 324 325 325 325 324 323 323 323 323 322 321 321 321 322 321 322 325 322 318 317 317 316 314
321 317 316 318 319 317 314 312 314 317 318 313 310 317 321 318 317 317 317 315 314 313 312 312 312 312 312 314 315 315 315 315 316 315 315 315 314 314 314 314 314 314 314 314 315 314 313 313 314 314 315 315 316 317 318 320 322 323 323 324 324 324 324 323 323 323 325 325 324 325 325 326 325 323 324 325 325 325 324 322 322 323 322 320 320 322 324 325 323 323 323 320 316 314 313 313 311
323 319 315 316 317 317 316 314 315 316 315 313 311 313 315 316 316 315 314 314 314 314 313 312 312 312 312 315 316 316 316 316 316 316 315 315 314 314 314 314 313 313 313 313 313 313 313 313 312 313 314 314 314 315 317 318 319 321 322 322 323 324 324 323 322 323 324 323 323 324 325 326 325 323 322 323 324 325 322 322 324 323 320 318 319 322 325 326 323 320 318 316 315 313 311 309 307
319 316 316 317 316 316 316 314 314 313 313 316 315 312 314 317 315 313 313 314 316 316 314 314 313 313 313 315 317 317 317 317 316 317 316 316 315 314 315 314 314 314 313 313 313 313 313 312 312 312 313 313 314 314 316 316 317 319 320 321 321 323 323 323 324 324 325 324 324 325 326 326 326 323 321 320 322 322 319 321 324 322 318 319 323 324 324 324 321 317 315 316 315 311 308 306 303
313 312 315 315 314 314 313 314 313 311 314 319 317 313 316 320 318 314 312 313 316 317 316 316 315 314 314 315 317 317 317 317 317 317 317 316 316 315 315 314 314 314 314 314 313 313 313 313 313 313 312 313 313 313 315 315 316 317 318 319 319 321 322 323 324 324 326 327 328 328 327 326 326 324 322 321 321 319 318 319 323 323 320 320 323 326 324 323 320 317 316 316 313 308 305 303 302
310 311 313 312 313 313 313 313 312 314 318 318 314 313 315 318 319 317 315 314 315 316 316 316 315 314 315 316 317 317 317 317 317 317 317 317 317 315 315 314 314 314 314 313 313 313 313 313 313 313 312 312 312 312 313 314 315 316 317 318 318 319 320 322 323 323 325 328 329 329 328 327 327 326 324 324 323 320 319 319 321 323 321 318 320 322 321 319 317 316 315 312 308 304 303 302 302
311 313 312 313 314 314 313 312 312 319 322 313 309 311 313 317 319 316 316 314 313 315 316 316 316 315 316 317 317 317 317 317 317 317 317 317 317 316 315 315 314 314 314 313 313 313 313 313 313 312 312 312 312 312 313 313 314 315 316 317 318 318 319 321 321 322 324 326 329 329 328 327 327 327 325 324 323 322 319 318 318 318 319 318 318 318 317 316 315 314 311 307 304 303 302 302 301
314 313 314 317 316 316 317 316 315 320 319 309 307 310 312 316 318 316 316 313 312 314 314 316 316 316 317 317 317 317 317 317 317 317 317 317 317 317 316 316 315 314 314 313 313 313 313 313 312 312 312 312 312 312 312 313 313 313 314 316 317 318 319 320 320 321 323 326 329 329 328 328 327 328 327 323 323 322 320 318 319 319 320 318 317 318 317 315 313 310 307 304 302 302 302 302 301
315 313 316 319 318 318 321 319 317 319 317 309 307 310 313 316 316 315 315 314 314 313 313 313 314 315 316 316 316 317 316 317 317 317 317 317 317 317 316 316 316 315 314 314 313 313 313 313 313 312 312 312 312 312 312 313 312 313 314 315 316 317 318 320 320 321 323 326 329 330 329 328 326 327 327 324 323 323 321 321 322 322 321 318 317 316 314 312 311 308 304 303 302 302 302 301 300
314 314 317 319 319 321 324 322 321 320 315 309 309 313 318 318 315 312 311 311 313 312 312 311 311 312 314 315 314 315 315 315 317 317 317 317 316 316 316 315 315 315 315 315 314 314 314 313 313 312 312 312 312 312 312 313 313 313 314 315 315 317 318 320 320 322 324 326 329 330 330 329 328 326 325 325 325 323 321 320 319 319 318 316 315 313 312 311 308 305 303 302 302 302 301 300 300
314 314 316 318 318 318 318 317 316 316 314 311 310 314 317 315 313 312 311 310 310 311 311 311 311 313 313 313 314 315 315 315 315 315 316 317 316 315 315 314 314 314 314 314 314 314 314 314 313 313 313 313 313 313 313 313 314 314 315 315 315 317 318 320 321 323 325 326 328 329 329 329 329 327 325 326 326 322 320 319 317 317 317 315 313 311 311 309 305 303 302 302 302 301 301 300 300
313 313 315 315 314 313 315 314 310 311 317 317 313 313 315 314 316 315 314 314 311 310 310 310 311 313 312 312 314 315 316 315 315 314 314 315 314 313 314 313 313 313 313 314 314 314 314 314 313 313 313 313 313 313 313 313 314 315 316 316 316 317 319 319 321 323 325 326 327 329 329 328 329 328 325 325 325 322 320 320 320 319 317 313 311 311 309 306 303 301 301 301 301 300 300 300 301
313 314 315 313 313 313 314 316 313 312 318 318 313 314 316 316 318 316 313 315 314 312 311 310 310 311 312 313 314 315 314 314 314 313 313 313 312 313 313 313 314 314 314 314 313 314 314 314 313 313 313 313 313 313 313 313 313 314 315 315 316 318 319 320 322 324 326 327 328 329 329 329 328 328 326 325 325 322 320 321 322 321 316 311 310 310 306 303 301 301 301 301 300 299 300 302 302
312 314 315 315 318 317 315 317 317 317 319 319 314 312 313 315 317 315 313 314 314 314 314 312 311 310 311 312 314 314 313 313 313 313 313 313 312 313 313 313 313 313 314 314 313 313 313 313 313 313 313 313 312 313 313 313 313 313 314 315 316 318 320 322 324 326 328 328 328 328 329 328 327 328 327 326 325 322 320 321 321 319 314 310 310 307 304 301 300 300 301 301 299 299 301 303 302
310 312 314 314 316 318 316 316 317 319 320 320 317 313 314 315 315 314 315 314 313 314 314 314 313 312 310 311 311 312 311 312 313 313 313 313 313 314 313 313 313 313 314 313 313 312 312 313 313 312 312 312 312 313 313 313 313 313 313 314 316 318 321 323 325 327 328 328 328 328 327 327 327 327 325 325 325 323 320 320 319 316 311 310 308 305 301 301 300 300 300 299 299 301 303 302 300
310 313 315 313 313 313 315 315 314 316 319 319 318 318 317 313 311 313 315 314 314 315 314 315 314 311 310 310 310 310 310 311 311 312 313 313 313 313 313 313 313 313 314 313 312 312 312 313 312 312 312 312 312 313 312 313 313 313 313 314 316 318 321 323 326 327 328 328 328 328 326 326 328 326 324 324 325 323 320 320 319 314 310 309 306 302 301 300 299 300 299 298 299 301 302 301 299
313 314 315 315 314 313 317 319 314 312 315 315 314 318 318 312 310 311 312 313 314 312 312 313 311 309 310 311 310 310 311 311 311 311 312 312 312 313 312 313 312 313 313 313 312 312 312 312 312 312 312 312 313 313 313 313 313 313 314 314 316 319 322 324 325 327 328 328 328 327 326 326 325 324 325 325 325 323 320 320 317 312 310 308 303 300 300 299 299 300 299 299 301 301 300 299 298
Wind_Speed
1 1 1 1 3 3 3 4 1 1 1 0 1 1 3 1 2 2 5 5 3 4 4 4 10 11 5 1 1 2 2 2 3 2 2 6 16 19 18 17 16 16 15 15 14 12 10 7 7 7 8 9 9 8 7 5 4 4 4 4 2 1 1 2 3 3 3 4 5 7 9 10 10 11 11 11 12 12 12 11 11 13 13 14 13 12 13 14 13 12 13 14 14 14 14 14 14
1 1 2 2 2 3 2 3 2 1 2 1 2 1 3 3 3 5 6 4 3 6 7 8 12 8 1 2 2 0 2 3 2 5 5 10 17 18 19 17 16 16 13 13 12 10 9 7 6 5 7 9 10 10 8 6 5 5 4 3 2 2 3 5 6 6 5 6 8 8 9 10 11 11 11 12 12 12 13 12 12 13 14 13 12 12 13 12 12 12 14 15 15 15 15 15 15
1 1 2 2 2 3 0 2 2 1 2 0 2 2 3 4 5 4 4 4 7 10 10 11 11 5 2 4 4 2 1 3 3 6 8 13 15 18 19 17 17 16 14 13 11 9 8 8 7 6 8 9 10 11 9 7 6 5 4 2 2 3 3 5 8 8 7 8 9 9 10 11 12 12 11 11 11 12 13 12 12 12 13 12 11 13 13 13 13 14 14 15 16 16 16 15 15
1 1 1 1 2 1 1 2 1 2 2 1 1 3 4 4 5 5 7 9 12 12 10 12 8 3 3 2 2 2 1 3 4 5 10 13 12 19 20 18 18 16 14 12 10 9 8 9 8 8 10 9 9 11 10 8 7 5 4 2 2 3 3 4 6 8 7 7 9 9 10 11 11 12 11 10 11 11 11 11 11 11 12 11 12 13 13 13 14 16 14 14 15 15 15 15 16
1 2 2 2 2 0 1 1 0 2 1 1 1 3 4 4 5 7 9 11 12 8 7 10 4 3 3 0 2 1 1 4 4 5 10 12 14 21 21 19 18 16 15 13 11 10 9 10 10 10 10 10 10 11 10 8 7 6 4 3 3 3 2 4 6 8 8 7 9 10 10 10 11 11 11 10 10 10 10 10 10 10 10 10 11 13 12 13 14 15 14 12 14 15 15 16 16
0 1 2 1 1 1 1 2 2 1 2 1 2 3 2 5 7 11 11 8 8 4 6 8 2 5 3 2 4 2 3 4 3 6 10 14 18 21 20 19 18 16 15 13 12 11 10 10 10 11 11 11 11 10 10 8 7 6 5 3 3 3 2 5 7 8 8 7 9 11 11 11 11 11 11 11 10 10 10 10 10 10 9 9 12 13 12 13 13 14 13 13 13 14 16 16 16
1 1 1 0 2 0 3 2 1 0 2 1 2 3 1 6 9 13 12 8 4 2 7 7 3 5 2 3 4 4 8 6 5 7 12 19 21 20 19 18 17 15 14 12 11 10 10 9 10 11 11 11 11 10 9 8 7 6 5 3 2 2 2 4 7 8 8 8 10 11 11 12 12 11 11 11 11 10 10 10 10 9 10 10 11 12 12 12 13 14 14 14 14 15 16 16 16
2 1 0 1 1 1 2 1 1 1 1 1 3 2 1 6 11 13 12 7 4 4 7 6 6 4 2 4 2 5 9 8 8 8 17 23 22 20 18 17 16 15 13 12 11 10 9 9 11 11 11 11 10 9 8 8 6 5 4 2 2 2 3 4 7 9 9 10 11 11 12 12 11 11 11 11 11 10 10 9 10 10 10 10 11 12 12 11 11 13 14 14 14 15 15 15 15
3 3 1 1 1 1 2 2 1 1 1 2 3 2 2 5 10 11 12 5 2 5 6 7 8 4 4 6 1 4 8 8 9 10 20 24 22 20 18 16 15 15 14 12 12 11 10 10 11 11 11 10 10 9 7 6 5 4 3 3 2 3 5 6 7 9 9 10 10 10 11 11 11 11 11 11 11 10 9 9 9 10 10 10 11 12 12 11 10 11 13 14 14 14 14 14 14
2 1 1 1 1 2 2 2 1 1 1 1 3 3 2 7 11 9 10 5 4 6 8 10 7 3 5 6 1 4 7 8 10 12 20 23 22 20 18 16 14 14 13 12 12 11 11 11 11 12 12 10 10 9 7 4 3 4 3 3 3 4 5 5 7 9 8 9 9 9 10 11 11 11 10 10 9 9 9 9 10 11 11 11 11 12 12 12 11 11 12 13 14 14 13 13 13
3 1 2 2 3 3 2 2 2 1 0 2 4 4 4 10 11 7 7 4 5 5 9 10 5 5 6 3 2 4 9 10 11 14 21 23 21 19 18 16 14 13 12 12 13 12 12 12 12 12 12 11 9 8 5 2 3 3 2 3 4 4 4 5 8 9 9 8 8 9 10 11 11 10 10 9 9 9 10 10 11 12 12 12 12 12 12 12 12 12 12 12 13 13 13 13 12
4 1 3 3 3 2 1 2 1 1 2 2 2 4 8 12 11 8 8 5 6 6 8 9 4 7 5 2 4 5 10 11 13 16 20 22 20 19 18 16 14 13 12 11 11 12 12 12 12 11 11 10 9 7 4 2 3 3 3 4 5 5 4 5 8 9 10 10 9 9 9 11 11 10 9 9 9 10 11 11 12 12 12 12 12 12 12 12 12 12 12 12 12 12 12 12 12
4 1 3 2 1 1 0 2 1 2 3 1 2 5 11 13 10 8 9 6 8 7 7 9 4 5 4 2 5 7 12 13 15 18 20 22 20 19 18 16 15 13 12 11 10 11 12 12 12 11 11 10 9 7 5 4 5 5 4 4 5 5 4 5 7 9 10 10 9 8 9 11 11 10 10 9 10 11 11 11 12 12 12 12 12 12 12 11 11 11 11 12 12 12 12 11 11
3 2 2 1 0 0 1 2 1 3 1 3 3 7 12 9 8 7 8 7 7 6 6 10 8 4 4 4 6 10 14 17 18 18 21 22 20 19 17 16 15 13 12 10 9 11 12 11 11 12 11 10 9 7 6 5 4 4 3 4 5 5 5 5 7 8 9 9 8 8 8 10 11 10 10 10 10 10 11 11 11 12 12 12 12 12 11 11 10 10 11 11 11 11 11 10 10
4 3 1 1 2 1 2 1 1 2 0 3 3 9 10 6 7 7 8 7 5 6 5 9 10 4 2 4 5 12 18 20 20 19 23 22 20 19 17 16 15 14 13 11 10 10 11 11 11 12 11 10 9 7 7 6 5 4 4 5 5 5 6 6 6 7 8 7 7 8 9 11 11 10 10 10 10 10 10 10 11 11 12 12 11 11 11 10 10 10 10 11 10 10 9 9 9
5 3 1 2 2 2 2 2 1 2 2 3 4 9 8 5 8 8 8 6 3 8 7 7 12 6 1 3 3 13 20 21 21 20 23 23 21 20 18 18 15 14 13 12 11 10 11 11 11 11 11 10 9 8 8 7 6 6 6 5 5 5 5 5 5 6 6 7 7 8 9 10 10 10 10 9 9 9 10 10 10 10 11 11 10 10 9 9 9 10 10 9 9 8 8 8 8
4 2 3 3 3 2 1 2 1 2 4 3 4 9 8 5 8 8 8 8 4 8 9 7 13 9 3 4 4 14 22 22 22 21 24 25 23 22 21 19 17 16 15 14 12 11 11 11 11 10 10 10 9 10 9 9 8 7 6 5 5 5 5 5 5 6 6 7 7 8 8 9 10 10 9 9 9 9 9 9 9 9 9 9 9 8 8 8 9 9 8 7 7 7 7 7 8
2 2 4 3 2 2 2 3 4 5 5 6 1 7 8 4 7 8 5 7 6 6 10 9 11 12 8 6 5 15 23 23 24 23 25 27 26 25 23 22 19 17 16 16 14 12 12 12 12 11 10 10 10 10 10 9 8 7 6 6 6 5 5 5 6 6 6 7 7 7 8 9 9 9 9 9 9 9 9 9 9 9 8 8 7 7 7 7 7 7 6 6 5 5 6 7 7
3 0 4 2 2 3 4 5 6 5 6 8 5 7 9 4 5 9 6 6 7 6 9 10 11 13 13 9 8 17 24 24 25 24 27 28 28 28 25 24 20 17 17 16 15 14 13 13 12 12 11 10 10 10 9 9 8 7 7 7 6 6 5 5 5 6 6 7 7 7 7 8 9 9 8 8 9 9 8 8 8 8 7 7 6 6 5 5 5 5 4 4 4 5 6 6 7
3 1 4 2 3 2 4 5 6 6 7 8 6 5 9 7 4 8 7 4 7 10 10 10 12 15 17 13 11 19 26 26 25 25 28 29 28 29 27 25 23 20 19 17 17 15 14 14 13 13 12 11 9 9 9 9 8 8 7 7 7 7 6 6 6 6 7 7 7 7 7 8 8 8 8 8 8 8 8 7 7 7 6 6 5 5 4 3 3 3 3 4 5 6 6 6 7
2 1 1 4 1 1 4 6 6 8 8 7 6 4 6 7 8 9 6 5 7 12 14 13 15 17 19 18 15 20 26 26 25 24 27 29 28 28 27 26 24 21 20 19 18 17 15 15 14 14 13 12 10 9 9 8 8 7 7 7 7 8 7 7 7 7 7 7 7 7 7 7 8 8 8 8 8 8 7 7 6 6 5 5 4 3 2 1 1 2 3 4 5 6 7 7 9
3 2 3 5 2 1 4 7 9 11 8 6 5 4 5 5 9 11 10 9 6 6 11 12 13 16 17 18 17 20 26 27 26 24 27 31 29 27 25 26 25 23 22 21 19 18 16 15 14 14 13 12 11 10 9 8 7 7 7 7 8 8 8 8 7 7 7 8 7 7 7 8 8 8 8 8 8 7 7 6 6 5 5 4 3 2 1 1 2 3 4 5 7 8 9 10 12
3 2 3 4 3 3 6 8 11 12 7 5 5 5 7 5 7 10 15 17 11 7 7 7 9 14 15 17 18 21 25 26 26 25 26 31 31 27 23 24 27 25 23 21 19 19 17 16 15 14 14 12 11 10 8 7 7 7 7 8 8 8 8 8 8 8 8 8 8 8 8 8 8 8 7 7 8 8 7 7 6 5 4 3 3 2 2 3 4 5 6 7 8 9 10 12 15
3 3 3 1 2 3 8 11 12 13 8 7 7 8 8 7 6 7 15 21 19 16 10 4 6 10 14 17 19 21 23 24 25 24 24 26 28 27 23 22 26 26 24 22 20 19 18 17 16 15 14 13 12 10 8 7 7 7 7 8 8 8 8 8 8 8 8 9 9 8 8 8 7 7 7 7 8 8 7 7 6 5 5 4 4 4 5 5 6 7 7 8 9 11 12 14 16
3 3 2 2 4 5 9 12 12 13 12 10 8 9 9 9 8 9 17 21 20 21 16 9 6 7 13 17 19 21 22 22 22 22 22 21 23 24 22 20 21 25 26 25 22 21 20 18 17 16 15 14 12 10 8 8 7 7 7 7 8 8 8 8 8 8 8 9 9 9 8 8 7 7 8 8 8 8 7 7 6 5 5 5 5 6 6 7 8 9 9 10 11 12 13 14 15
3 2 1 3 7 8 10 12 10 13 14 10 7 8 8 8 9 11 17 18 18 20 19 16 10 8 11 15 19 21 22 22 21 22 22 20 22 24 23 20 18 22 26 26 24 23 22 20 19 17 15 14 12 11 9 8 7 7 7 7 8 8 8 8 9 9 9 9 9 9 9 8 8 8 8 8 8 8 7 7 6 6 6 6 7 7 8 9 10 10 11 11 12 13 13 13 16
3 1 4 7 9 9 10 11 11 13 13 9 7 8 5 3 5 6 6 7 11 16 19 19 16 12 11 14 18 21 22 23 21 21 20 21 24 24 23 22 21 22 25 27 26 25 24 22 20 18 16 15 13 12 10 9 8 8 7 7 8 8 8 9 9 9 9 9 9 9 9 9 9 9 9 9 8 8 7 7 7 8 8 8 9 10 11 11 12 12 13 13 14 15 14 14 16
5 2 6 8 9 9 10 11 10 8 9 7 7 7 3 3 4 7 7 7 7 12 18 19 19 16 14 14 17 20 23 22 21 20 21 24 25 25 24 25 26 24 24 27 27 25 25 24 21 19 18 17 15 13 12 11 9 9 8 8 8 8 8 9 10 10 9 9 9 9 9 9 9 9 9 9 9 8 9 9 10 10 11 11 12 12 13 13 14 15 15 16 16 16 15 12 12
5 2 4 7 9 12 11 8 7 4 5 4 3 7 7 8 9 10 10 10 7 10 16 18 20 19 17 16 17 20 22 23 22 22 23 24 24 25 26 27 27 26 25 26 26 26 25 24 22 20 19 18 16 15 14 13 11 10 10 9 10 10 10 9 10 10 10 10 10 10 10 10 10 10 10 10 10 10 11 11 12 13 13 14 14 14 15 15 16 15 14 13 13 12 11 8 8
5 4 1 5 8 10 4 1 3 3 3 2 2 7 8 8 12 13 10 10 9 10 14 17 19 20 19 18 19 20 22 23 24 24 24 24 24 26 26 26 26 26 25 25 26 27 25 25 24 22 20 19 17 16 15 14 13 12 11 11 12 12 11 11 10 11 12 12 12 12 12 12 12 12 12 12 12 13 13 14 14 15 15 15 15 15 14 14 13 11 10 9 9 8 6 5 5
4 3 1 3 5 4 1 2 2 3 3 5 5 7 9 4 6 11 12 12 11 11 13 16 18 19 20 19 20 21 21 23 24 24 24 24 26 28 28 26 26 26 25 26 26 25 25 25 24 22 20 19 19 18 16 15 15 14 13 13 13 13 13 12 12 13 14 14 14 14 14 14 14 14 14 15 15 15 14 14 14 15 16 14 12 12 11 9 8 7 7 7 6 5 4 4 5
3 3 4 4 5 2 3 3 2 4 2 8 8 6 7 6 3 6 12 14 13 12 12 15 17 18 20 20 20 21 22 23 23 23 24 24 26 29 29 27 26 26 25 25 25 24 25 24 23 22 21 20 20 19 18 17 16 16 15 15 14 14 14 14 14 15 16 16 16 16 16 16 16 16 16 16 16 16 15 13 12 14 15 12 9 10 8 6 6 6 7 6 5 4 4 4 5
2 4 5 4 5 2 3 2 3 3 1 7 10 6 4 3 1 1 7 14 16 13 11 15 18 18 20 21 21 22 23 24 23 23 24 24 25 27 29 28 27 26 25 25 25 25 25 25 24 24 23 22 21 21 20 19 18 18 17 16 16 15 15 15 16 17 17 17 17 18 18 18 18 17 17 17 16 16 15 13 11 12 12 9 7 8 7 5 6 6 5 5 5 4 4 5 6
3 2 5 4 4 2 2 1 4 3 1 4 9 9 8 7 4 2 2 8 13 14 12 15 19 20 20 22 23 23 24 25 24 23 22 22 24 26 27 28 28 27 27 27 26 26 26 25 26 26 25 24 23 23 22 21 20 19 18 18 18 17 18 18 18 19 19 18 18 18 18 18 18 18 17 17 16 16 14 12 11 11 9 7 5 6 6 5 6 7 5 5 5 5 5 7 7
6 5 6 4 3 1 2 3 3 5 3 5 8 10 12 13 14 13 7 7 10 12 13 16 19 21 20 22 23 24 25 25 24 22 21 22 23 24 25 27 28 28 29 28 28 27 27 27 27 27 27 27 25 25 24 23 22 22 22 21 21 20 20 20 21 21 20 19 18 17 17 17 18 18 16 15 14 14 12 11 10 9 8 6 5 5 5 5 7 8 7 5 6 6 8 9 8
10 9 7 4 4 3 2 4 3 5 5 7 9 11 12 13 17 17 10 10 11 10 12 15 18 20 21 23 23 25 26 25 22 23 24 24 24 24 24 25 27 28 29 29 29 29 29 29 28 28 28 27 27 26 26 25 25 25 25 24 24 23 22 22 23 22 21 20 19 18 18 18 17 17 15 13 13 12 11 10 9 9 8 7 6 5 5 7 8 8 6 5 6 8 10 10 8
9 8 7 4 4 4 2 4 3 1 5 7 7 10 13 13 16 16 9 8 11 11 13 15 17 19 21 23 25 26 26 24 22 23 25 25 25 25 25 25 26 27 29 30 31 31 31 31 30 30 29 28 28 28 28 27 27 27 27 27 26 25 24 24 23 23 23 23 21 21 20 19 18 17 15 14 13 12 12 11 10 9 9 8 8 7 8 9 8 7 6 6 7 9 11 11 9
6 6 6 5 4 4 4 4 3 2 4 7 7 10 13 12 14 17 10 7 12 14 15 16 18 20 21 21 24 26 26 24 22 24 25 26 27 27 26 26 27 28 29 31 32 32 32 32 32 32 30 29 30 30 29 28 28 28 28 27 27 26 26 25 25 24 24 23 22 22 22 21 20 18 17 15 13 12 13 13 12 11 11 10 9 10 10 9 8 7 7 8 9 11 12 12 10
6 6 4 4 4 3 4 5 3 3 4 6 8 10 14 13 13 17 14 11 15 18 18 19 19 20 23 22 22 23 24 24 24 26 26 26 27 28 28 29 28 28 28 30 32 32 33 33 33 33 32 32 32 31 31 30 29 28 26 26 26 26 25 25 24 24 23 22 23 22 22 22 21 20 18 17 15 15 14 14 12 12 13 12 11 12 10 8 7 7 8 9 10 11 12 11 9
4 6 6 5 5 4 5 4 4 3 3 5 8 9 12 13 12 16 18 17 18 19 21 24 23 22 25 26 23 22 22 23 24 26 27 28 29 29 30 31 30 29 30 30 31 32 34 34 35 35 35 35 34 33 32 31 29 27 26 25 25 25 24 24 24 24 24 23 24 24 22 21 20 20 19 18 18 17 15 14 13 13 15 15 13 11 10 9 9 9 9 9 9 10 12 12 8
4 6 8 5 6 8 6 1 1 4 3 2 5 8 10 12 13 14 13 12 14 17 18 21 25 27 27 27 26 25 25 25 24 24 26 28 31 31 30 31 31 31 32 32 32 32 32 33 34 35 36 36 35 35 33 32 31 29 27 27 27 27 27 26 26 27 27 27 27 26 23 21 18 19 20 19 19 18 18 17 16 16 15 14 13 11 10 11 11 12 12 11 11 11 12 12 9
5 5 8 8 9 10 6 1 2 5 5 3 2 7 8 7 11 13 9 7 9 11 14 18 24 27 29 29 29 29 29 28 28 26 26 26 30 31 30 31 32 33 33 33 31 30 30 31 33 34 35 35 35 36 35 33 33 32 31 31 31 31 31 31 31 30 29 29 28 26 24 22 18 18 20 20 19 20 20 19 17 17 16 14 13 13 13 13 12 12 13 13 13 11 11 12 10
6 6 8 9 10 10 8 4 2 5 4 0 1 6 6 4 7 9 7 8 9 9 11 15 19 23 28 30 30 30 29 29 30 29 27 25 27 31 31 31 33 33 34 33 31 30 30 31 32 32 33 34 35 36 36 35 35 35 34 33 33 33 34 34 33 31 29 29 27 25 23 22 20 20 21 22 22 22 20 18 17 18 18 16 14 14 15 15 14 13 14 14 12 10 9 9 8
5 8 12 11 10 11 10 6 4 3 4 4 3 3 6 8 6 4 4 8 11 10 10 12 15 21 28 30 29 29 28 28 28 29 28 26 26 30 32 32 33 33 32 32 32 32 32 32 32 32 32 33 35 35 36 37 37 37 36 35 35 35 35 34 32 30 29 27 25 24 23 23 22 21 22 23 24 24 21 19 19 19 19 17 16 16 18 18 16 15 14 12 10 9 7 6 6
1 7 12 11 9 8 6 4 3 1 3 7 5 4 5 9 5 2 3 10 15 15 12 11 13 20 28 30 30 29 28 27 27 27 28 26 26 28 32 33 32 33 32 32 32 32 33 33 32 32 33 33 34 34 36 37 38 37 37 38 37 37 36 34 33 31 28 26 24 24 24 23 23 22 22 23 23 24 22 20 21 22 20 17 16 17 17 18 17 14 12 10 10 9 7 6 5
4 8 8 6 5 3 2 2 2 1 4 8 6 8 6 10 7 4 4 9 14 14 10 9 13 20 26 28 28 27 28 28 28 27 27 27 27 27 30 32 32 33 33 32 32 33 34 34 34 34 34 34 34 35 36 37 38 38 38 40 39 38 37 35 34 33 30 27 25 24 23 23 22 22 22 21 20 22 22 22 22 23 20 18 20 20 19 19 18 14 12 11 10 9 8 7 5
12 10 9 8 4 2 2 1 1 2 6 5 5 9 6 8 8 7 7 6 9 11 10 9 12 18 24 25 24 24 25 27 28 28 28 28 29 29 30 31 32 33 32 32 33 34 35 35 36 36 36 36 36 36 36 36 37 38 39 40 40 40 38 37 36 35 32 29 28 27 25 23 21 22 22 23 22 21 22 23 23 22 21 20 22 23 21 19 17 14 13 12 11 10 8 7 5
12 8 8 8 4 2 2 1 2 6 6 1 3 8 9 10 6 5 7 5 6 10 12 13 13 18 26 27 25 25 25 26 26 27 29 30 31 32 32 32 33 34 34 33 34 34 34 35 36 38 39 39 38 38 37 37 37 38 39 40 40 40 38 38 38 36 34 31 30 29 26 24 23 24 25 25 23 22 22 23 23 22 22 22 22 22 20 17 14 13 13 13 12 10 8 6 5
5 7 9 6 4 3 4 3 3 7 4 1 2 4 8 12 8 9 10 6 6 10 12 15 14 18 26 26 25 27 28 29 27 25 26 29 31 33 34 35 36 37 37 35 34 33 33 34 36 38 40 41 40 39 38 38 38 39 39 40 40 39 38 39 38 36 35 32 30 30 28 27 26 26 29 28 24 22 22 22 22 23 23 22 21 20 18 16 15 15 15 14 12 10 9 7 5
5 8 8 5 5 5 6 5 3 5 3 2 1 2 6 10 5 10 13 9 13 15 16 20 18 20 25 23 23 25 28 30 29 27 26 27 29 30 32 35 37 39 39 38 37 34 33 34 35 37 39 40 40 40 39 39 39 39 39 39 39 39 39 40 39 37 36 33 31 31 30 29 28 28 31 29 24 22 22 21 23 26 25 22 19 19 18 17 17 17 16 14 12 10 9 7 5
6 5 4 4 6 5 5 5 5 3 2 2 3 2 6 4 2 4 8 8 13 16 18 21 22 23 24 24 25 25 26 27 28 28 28 27 28 29 30 32 34 37 38 39 40 38 36 34 35 36 37 38 39 40 41 41 40 40 39 38 38 38 39 40 39 37 36 34 32 31 29 29 29 29 29 28 25 23 23 24 26 27 24 21 18 18 19 19 19 17 16 14 12 11 9 7 5
4 1 1 3 3 2 1 1 2 1 1 3 5 4 5 2 6 9 7 5 8 14 18 20 24 28 27 27 28 27 26 26 26 28 29 29 28 28 28 29 29 31 32 35 38 40 40 36 35 36 35 35 37 38 40 41 41 40 39 38 37 38 39 39 39 37 36 34 32 30 29 28 29 29 28 27 26 24 23 24 24 22 20 20 20 20 20 20 19 17 16 14 12 11 9 7 5
4 3 4 2 1 2 1 1 2 1 5 4 5 6 6 4 9 11 11 9 5 7 12 16 24 30 27 28 30 29 28 28 28 28 27 27 27 26 26 25 25 26 28 30 33 37 41 39 37 37 36 36 36 36 38 39 40 40 39 38 37 37 38 38 38 36 35 33 31 29 28 28 29 29 28 28 27 24 23 25 25 21 20 22 23 22 22 21 19 18 16 14 12 11 9 7 5
6 6 7 4 2 2 2 3 1 3 7 4 4 8 6 4 6 3 7 12 9 7 8 10 17 22 23 30 36 35 32 31 30 27 24 24 25 25 25 23 23 23 25 27 30 34 39 40 38 38 37 37 37 35 34 34 36 38 38 38 38 37 37 37 35 34 33 32 30 28 29 29 29 29 29 29 28 25 24 28 28 25 23 25 25 24 23 22 20 18 17 15 13 11 9 6 4
2 4 9 6 2 4 4 3 3 4 7 5 4 6 6 8 7 2 4 8 9 10 8 6 9 13 17 26 34 33 31 32 32 29 25 23 23 24 24 24 23 22 23 25 28 33 38 40 39 38 38 37 36 34 32 32 33 35 37 38 37 37 36 35 33 32 32 31 30 29 30 31 30 30 30 30 28 25 25 28 28 25 25 28 27 25 24 22 20 19 17 15 13 11 9 6 4
1 3 8 3 2 3 4 3 1 3 6 6 3 2 5 7 8 9 9 8 8 10 8 6 10 14 14 18 23 23 23 24 26 28 27 26 25 25 26 26 24 22 21 22 25 31 36 38 37 37 37 36 36 35 34 34 34 34 36 36 36 36 35 34 32 32 32 31 30 30 31 31 31 32 31 30 29 25 24 27 26 24 27 29 27 26 24 22 21 19 17 15 13 11 9 6 5
5 7 8 4 2 1 1 3 2 2 5 5 4 5 5 2 4 10 14 13 13 11 8 6 8 10 10 11 12 13 12 13 15 19 23 24 25 25 27 27 24 22 21 21 24 28 32 34 34 34 34 34 34 35 35 36 36 36 36 36 36 35 34 33 32 32 32 31 30 31 31 31 32 33 31 30 29 25 24 26 25 25 28 29 27 26 24 22 21 20 18 16 14 11 9 7 6
9 8 9 10 8 5 4 6 5 3 4 3 3 7 6 3 3 6 10 10 9 7 4 4 6 7 8 7 8 10 12 13 14 15 17 19 20 22 24 25 23 22 21 22 24 26 29 30 30 31 31 32 33 34 34 35 35 36 36 36 36 35 34 33 32 33 33 31 32 32 32 32 32 32 33 32 29 25 24 26 25 26 29 29 28 26 24 23 22 20 18 16 14 11 9 8 7
Wind_Direction
181 211 320 314 335 320 335 334 287 93 273 160 96 211 141 129 349 183 161 150 150 149 161 120 145 151 141 140 147 23 17 179 9 3 117 138 163 169 170 166 168 170 173 173 171 176 178 181 173 176 180 173 165 150 143 145 140 136 132 135 126 112 105 92 115 119 107 96 99 109 109 109 107 103 105 107 108 106 99 97 95 94 91 87 87 84 84 89 91 85 77 76 77 73 67 63 61
223 275 303 261 327 325 299 312 292 146 254 150 128 290 111 146 214 189 164 153 94 133 156 138 149 158 154 140 145 194 157 189 20 63 107 145 157 166 169 167 170 167 167 171 169 169 173 188 186 182 179 172 163 148 142 145 143 146 146 140 125 87 71 88 105 107 104 108 106 112 112 111 109 102 103 103 102 103 99 95 90 90 91 87 84 80 82 87 88 86 80 80 77 70 65 63 62
269 298 302 250 296 341 303 268 279 216 275 28 116 115 132 186 190 164 122 104 101 130 142 140 153 148 127 155 174 237 136 185 146 100 127 146 155 166 165 167 168 164 166 170 172 169 170 181 183 173 156 153 154 150 148 149 150 157 151 132 122 93 77 97 110 109 112 117 111 115 114 108 109 104 104 106 102 103 101 99 95 92 93 90 86 82 83 86 84 83 82 79 73 66 64 63 62
280 289 279 255 248 314 276 253 303 270 278 17 50 130 188 211 161 121 99 109 119 129 136 148 158 157 196 177 169 229 162 167 153 117 142 150 164 167 161 165 165 161 164 168 174 175 175 175 171 160 142 139 145 151 157 156 158 163 156 145 113 103 89 101 122 122 117 115 111 116 114 104 106 104 102 103 100 104 105 103 101 97 93 91 90 88 86 85 84 85 85 79 70 66 66 66 66
287 270 246 273 250 339 345 263 149 265 322 45 2 120 204 208 141 126 120 125 128 127 147 163 166 168 198 320 168 246 137 165 167 149 149 156 168 164 159 161 160 158 162 166 172 176 176 171 164 153 140 141 143 149 161 161 164 168 158 136 104 106 90 92 124 132 121 116 113 112 110 104 102 102 100 99 98 101 104 102 99 95 91 88 89 89 87 86 87 89 90 81 71 69 70 69 69
318 263 252 298 170 126 221 219 195 233 54 355 329 65 189 182 148 139 136 136 136 130 162 176 190 160 164 200 197 227 170 161 163 164 154 161 163 160 158 158 157 158 163 167 170 174 174 167 162 152 142 145 147 151 160 165 166 163 146 117 92 95 76 95 118 123 119 116 111 108 105 102 98 99 99 100 101 97 96 96 95 94 92 88 88 86 85 89 90 91 90 81 73 70 70 69 70
199 238 303 56 102 115 251 235 234 215 90 309 328 34 103 159 153 147 150 159 165 172 172 184 183 160 150 170 194 216 192 160 150 171 160 160 160 158 157 156 156 158 163 166 167 170 169 166 162 152 146 148 152 158 160 167 165 157 149 118 80 81 80 111 118 116 114 108 106 109 108 105 102 100 99 99 99 94 92 95 96 97 98 93 90 89 88 89 87 88 87 80 73 68 68 68 69
205 189 10 219 122 320 260 251 250 334 78 273 299 341 38 156 162 161 165 169 171 175 177 183 185 198 157 145 188 214 201 180 169 170 160 160 159 156 155 157 156 157 160 165 168 161 161 167 161 152 152 153 157 161 160 169 174 167 155 123 98 101 120 129 121 118 119 117 115 117 114 110 106 102 100 99 97 96 95 95 96 99 101 97 95 94 92 89 83 82 80 77 72 68 68 68 68
197 185 163 221 233 259 229 258 233 305 255 222 254 251 296 178 172 172 173 170 152 162 170 173 187 220 142 149 203 202 209 198 176 166 161 159 157 155 153 157 155 156 159 166 167 153 161 169 159 154 156 159 164 167 167 174 185 173 145 128 129 124 138 142 126 117 118 119 120 121 119 115 108 104 101 101 101 102 101 99 98 98 99 97 97 99 99 96 87 81 76 76 75 72 71 69 69
206 191 151 198 233 244 228 235 191 222 225 234 263 240 226 181 178 182 177 168 150 158 165 170 183 192 147 158 164 190 204 179 168 168 163 158 155 155 152 154 154 156 158 164 166 155 163 168 160 158 159 164 168 173 179 184 187 164 145 147 133 119 133 137 120 115 117 112 116 124 125 123 114 108 105 105 106 104 105 104 102 99 99 98 98 99 101 98 90 85 79 77 77 76 74 72 72
225 129 157 221 229 247 252 231 201 211 279 266 259 224 196 174 173 179 180 165 154 160 165 174 180 163 155 160 162 201 194 167 167 169 162 159 156 154 151 152 152 154 158 162 167 161 160 166 165 160 162 167 171 177 181 186 189 164 146 140 110 100 101 95 101 114 128 118 114 123 128 128 118 114 112 111 106 102 104 102 100 100 100 100 97 94 92 92 89 87 83 82 79 78 77 75 73
232 112 199 235 241 264 316 281 258 295 288 243 196 178 179 169 171 184 190 180 165 171 174 185 181 160 158 153 174 190 182 164 166 171 163 161 157 154 152 150 149 150 157 162 165 164 162 168 169 165 169 175 181 187 176 133 131 126 112 108 95 96 98 87 94 113 128 121 115 121 126 128 125 123 118 111 105 101 101 99 99 99 98 97 94 93 91 91 90 90 89 85 82 79 77 75 71
228 142 222 227 277 292 355 279 294 297 267 189 105 161 171 170 184 193 186 183 174 176 181 188 173 164 170 157 185 182 174 163 168 173 165 164 161 156 153 149 148 149 153 157 163 163 165 172 171 169 173 180 188 193 179 138 118 112 102 100 100 106 115 108 107 117 124 120 123 127 126 129 130 128 118 107 102 101 101 100 101 99 98 97 95 97 95 93 91 90 89 83 79 76 73 71 68
198 179 235 204 77 216 217 270 263 268 237 93 82 159 168 178 200 192 183 194 186 180 183 187 178 170 185 180 189 186 175 165 173 176 167 168 164 158 154 151 149 150 151 150 159 160 162 171 170 168 169 177 186 192 183 164 146 131 125 119 116 122 132 128 124 128 130 128 129 130 130 134 132 125 117 108 104 104 104 102 102 100 99 99 99 100 97 95 93 88 83 78 74 69 66 62 57
163 159 235 175 162 189 213 277 343 268 64 82 121 160 171 197 204 192 203 214 193 187 181 183 186 177 192 189 177 186 180 167 173 177 172 172 168 163 159 157 155 152 151 148 156 159 160 166 166 166 167 172 177 182 176 167 164 150 148 144 131 131 138 137 133 133 137 136 131 130 130 133 131 125 120 113 112 110 108 105 103 103 102 102 102 101 100 98 93 86 79 74 68 62 58 52 48
137 139 222 204 198 208 197 185 195 258 28 75 150 163 178 207 199 195 215 221 195 193 185 179 193 193 118 180 186 189 182 168 172 178 177 177 173 171 166 164 162 158 156 152 156 157 161 164 162 165 166 167 166 166 162 157 155 150 152 147 136 131 132 133 132 131 135 141 139 133 128 131 133 131 125 119 118 115 111 109 106 106 103 102 102 101 101 98 92 84 78 71 64 55 48 41 37
120 150 215 214 207 194 190 176 190 297 24 62 165 182 193 197 195 203 216 213 206 196 193 198 201 206 177 173 201 188 182 172 172 180 181 181 180 177 175 173 169 167 165 158 159 158 161 165 161 163 162 158 155 156 155 151 148 149 150 144 140 130 127 130 129 134 138 145 146 137 133 137 141 135 129 125 124 123 119 116 113 109 104 102 102 103 100 95 89 82 75 68 59 48 38 30 24
120 192 211 214 194 126 22 10 359 326 358 18 247 215 221 203 187 200 208 203 209 201 201 215 210 212 205 188 190 181 183 179 175 182 186 186 186 183 181 180 176 174 172 165 164 162 161 164 162 163 161 157 156 156 154 152 151 155 158 151 144 134 134 134 133 142 145 149 148 144 145 146 145 139 133 133 134 133 129 126 122 116 112 111 108 106 101 93 86 80 73 61 47 34 24 18 12
74 153 213 197 70 61 31 13 12 344 332 342 319 230 234 243 185 198 216 200 195 207 205 212 215 214 208 199 190 183 187 185 180 187 191 191 191 188 185 184 183 179 179 173 167 165 164 163 163 163 163 163 164 164 161 159 162 167 170 161 151 147 145 141 143 152 151 151 152 152 153 152 148 143 139 141 143 140 138 135 130 126 123 123 119 112 103 94 84 73 59 42 27 16 10 5 358
61 276 212 119 42 65 56 22 20 6 329 325 322 252 236 243 206 200 224 207 198 222 213 202 212 215 209 200 191 188 190 188 185 190 195 197 195 193 191 189 189 186 184 181 174 172 169 166 164 162 161 162 166 170 169 168 172 174 175 169 161 159 154 152 157 159 155 151 154 155 155 156 152 148 147 147 148 147 146 143 137 135 134 133 129 124 111 99 78 51 26 10 4 358 351 344 337
77 358 134 97 31 189 59 14 3 358 339 321 311 284 250 238 220 209 218 221 221 232 226 221 223 221 212 202 194 190 191 190 189 193 197 200 199 196 196 195 196 194 191 189 183 179 176 173 168 164 161 160 162 167 168 167 170 170 172 174 169 166 162 162 163 156 153 152 153 156 157 159 156 153 152 153 154 155 153 151 150 147 147 148 146 140 129 103 36 1 351 348 344 339 332 326 321
101 78 81 96 52 20 24 355 350 349 340 316 294 286 288 255 224 216 217 232 247 241 238 243 237 234 225 209 199 191 192 193 192 195 198 202 204 200 199 200 201 201 201 197 190 186 184 181 176 170 166 163 162 163 165 163 163 166 169 174 171 169 168 167 164 158 154 154 154 158 161 161 159 158 158 161 163 163 163 162 161 163 165 165 173 181 207 283 313 324 328 331 329 326 322 316 318
126 129 125 106 42 7 354 350 351 348 336 299 291 290 286 264 245 231 226 238 254 265 261 262 241 239 234 216 206 196 195 197 197 199 199 201 204 203 201 202 204 205 205 203 197 193 190 188 185 180 174 172 169 165 164 164 165 169 172 173 170 170 170 169 165 162 161 159 160 161 163 163 163 165 167 170 171 172 173 173 176 179 185 195 214 238 271 290 302 313 318 321 319 320 317 316 324
167 166 165 164 351 336 344 352 355 350 333 301 290 283 272 254 265 251 237 244 248 254 258 258 239 231 223 215 212 206 203 204 205 203 201 202 204 204 203 203 205 207 207 206 203 201 198 196 194 190 185 180 176 172 168 170 172 171 172 173 171 171 171 168 164 164 167 166 165 163 164 167 170 175 180 182 182 184 185 186 192 198 209 225 243 263 283 291 299 306 309 312 315 315 314 316 323
210 174 152 243 306 312 327 336 345 344 328 314 292 267 261 255 263 263 257 257 252 250 246 241 245 223 215 215 213 209 207 208 206 203 203 204 204 204 205 204 205 207 207 206 206 205 204 203 202 199 195 189 183 180 178 180 180 174 171 169 169 173 172 167 164 164 170 171 170 169 169 173 178 186 192 194 194 195 199 203 210 217 231 248 261 276 286 292 296 298 301 305 308 309 310 312 315
221 214 308 292 303 304 308 312 326 334 322 312 282 262 266 262 263 265 263 262 258 250 241 237 241 231 217 214 214 212 210 209 207 206 204 203 204 205 206 206 205 206 207 207 208 208 207 207 207 206 203 200 195 191 192 191 187 181 175 171 168 172 173 171 170 170 171 173 175 175 176 180 185 194 199 202 204 206 212 217 226 236 246 258 267 275 280 284 288 290 297 301 304 306 305 305 307
135 294 311 298 299 300 299 299 306 317 314 295 263 273 287 252 246 256 272 277 259 244 236 235 235 236 226 217 217 214 214 215 213 209 204 203 206 206 206 209 209 209 209 209 210 211 211 210 209 209 209 209 207 203 204 202 198 193 188 185 176 176 177 176 179 179 177 177 178 179 183 188 193 198 205 210 212 215 223 229 238 247 251 257 264 267 272 278 282 288 294 297 298 298 298 299 302
113 20 296 285 288 290 284 286 298 307 306 283 252 274 273 168 218 240 264 291 270 236 232 233 230 232 231 224 220 217 217 217 214 209 206 208 209 209 210 212 213 211 212 211 212 214 214 213 211 211 212 212 212 211 211 211 209 206 205 203 196 195 191 186 187 186 186 186 185 187 192 196 201 206 212 217 222 227 233 238 245 252 255 259 264 269 275 281 286 290 293 294 295 294 294 295 297
104 87 274 287 290 285 274 272 291 282 287 284 242 271 244 193 221 240 254 265 256 233 229 228 227 227 228 227 223 221 221 218 215 212 213 214 211 212 213 216 216 214 214 213 213 215 215 214 214 213 214 213 213 213 215 216 216 215 216 215 214 214 210 202 198 195 196 198 198 201 204 207 212 217 223 227 233 238 243 247 252 257 263 266 271 276 281 287 290 292 294 297 299 300 300 297 297
107 103 236 296 281 274 273 343 292 237 241 221 176 267 250 200 220 236 248 250 237 229 228 226 225 224 225 226 225 225 224 222 220 219 219 219 216 216 216 217 219 218 216 214 213 214 214 213 214 215 216 214 214 215 217 218 220 221 223 222 222 222 223 219 214 211 209 208 210 211 215 219 222 227 232 236 240 244 248 255 259 264 268 272 278 281 284 289 291 293 297 303 307 312 314 307 303
129 113 194 255 247 245 69 57 270 237 201 176 186 259 260 227 218 232 238 238 228 224 228 230 227 224 225 226 226 227 227 226 225 224 224 223 221 221 220 219 219 220 219 217 215 213 213 214 215 218 218 217 217 217 218 220 223 225 227 227 226 225 227 229 227 225 221 218 218 220 223 226 229 233 236 240 245 249 254 258 263 266 269 275 281 283 286 288 293 299 302 308 315 319 322 315 310
133 178 209 211 221 248 345 331 268 286 224 168 192 255 270 267 265 243 232 224 220 221 228 232 232 228 226 227 227 228 229 229 228 228 227 225 224 223 222 221 219 219 220 220 218 215 215 216 217 220 221 221 220 220 221 223 225 227 229 231 229 228 229 231 233 232 228 226 226 226 229 231 234 237 240 244 248 252 255 258 263 267 272 280 281 281 282 282 304 314 304 313 328 326 323 329 325
134 215 214 186 205 223 315 327 73 346 310 181 213 250 299 276 239 239 222 217 218 222 227 231 233 233 229 228 228 229 229 230 231 230 229 226 225 224 222 221 220 219 220 221 221 219 219 220 222 224 224 224 223 222 223 225 227 229 231 233 233 232 231 232 234 233 232 230 231 233 233 235 239 242 246 250 253 256 257 259 264 267 273 280 276 279 279 283 322 331 313 315 335 337 324 324 321
135 226 227 204 207 196 215 171 62 13 286 220 236 249 268 268 261 263 200 210 217 221 231 234 236 236 234 231 229 231 230 231 234 234 232 228 225 225 222 221 220 219 219 221 223 224 224 224 226 227 226 226 224 224 225 227 230 231 232 234 234 234 233 233 233 232 232 231 234 237 239 242 244 246 251 255 259 260 259 262 266 266 271 278 275 278 281 293 322 327 314 306 325 334 315 311 313
165 198 217 209 200 221 226 210 7 352 296 260 255 254 264 268 268 262 241 224 223 224 235 239 240 239 238 237 233 233 235 235 237 238 235 232 229 227 224 223 221 220 220 221 222 225 226 227 228 228 227 227 226 226 227 229 230 232 233 234 234 235 234 234 233 231 230 231 235 238 242 247 249 250 250 254 261 262 258 261 265 262 264 267 264 273 287 294 295 298 296 294 316 321 309 309 318
186 197 217 218 197 206 222 235 305 341 302 271 260 260 264 264 266 262 242 233 236 236 244 243 241 240 239 241 239 237 239 240 239 238 237 233 231 230 227 225 223 221 221 222 223 224 225 226 227 228 226 226 227 227 228 229 230 232 233 235 235 236 236 235 236 234 232 233 235 238 242 245 249 252 250 251 261 260 253 255 258 255 257 259 259 275 291 288 281 278 280 287 307 315 314 312 319
189 191 218 223 220 209 175 229 239 338 293 271 259 267 267 262 267 267 245 228 238 237 242 243 239 240 240 241 242 240 241 242 241 240 238 235 233 232 229 226 224 223 222 222 223 223 224 225 227 228 227 227 228 228 227 228 230 232 233 235 236 236 238 238 238 236 234 235 236 239 242 242 245 252 254 256 261 262 255 255 257 252 257 260 265 275 278 277 272 264 273 285 294 304 315 315 321
180 186 207 207 227 227 198 222 201 158 257 265 269 278 273 265 268 270 252 217 237 236 233 239 238 240 243 243 243 243 243 242 241 242 240 238 234 232 231 228 226 225 223 223 223 224 225 226 228 230 230 230 231 231 230 229 231 233 235 237 238 238 239 239 239 240 239 239 240 242 244 244 244 246 251 254 258 261 259 259 260 257 259 263 271 276 270 269 265 258 269 281 289 293 302 309 316
182 181 203 222 208 220 229 210 169 171 223 265 285 286 278 275 272 273 264 241 244 241 236 241 241 242 245 246 245 244 246 244 241 243 243 241 239 235 233 231 229 227 226 226 226 226 227 228 229 230 231 232 233 233 233 232 233 235 238 240 242 243 242 241 242 243 243 245 247 247 247 247 244 242 247 253 255 260 262 263 264 264 264 264 269 271 261 260 265 267 270 275 283 280 286 298 307
188 176 197 227 175 192 234 190 169 210 228 277 290 288 282 278 269 269 264 248 245 244 243 246 244 245 248 250 250 247 247 247 244 245 246 245 243 239 236 234 232 230 229 228 227 227 228 228 229 231 232 233 234 235 235 236 236 237 239 241 242 242 242 241 239 239 239 240 244 246 248 248 244 240 243 249 252 257 260 258 260 264 265 261 259 258 253 258 265 270 272 271 274 272 283 294 297
211 200 207 212 177 205 237 160 273 261 230 233 274 280 272 261 253 258 256 238 236 239 240 245 243 245 248 248 250 248 246 247 247 248 249 247 244 241 239 238 236 234 232 231 230 228 227 228 229 231 232 234 235 235 236 237 238 238 237 237 236 236 236 234 232 232 232 233 237 241 244 249 249 241 240 244 249 253 253 250 254 258 256 249 243 242 248 259 264 267 271 272 271 272 281 286 285
205 225 226 218 196 209 217 120 317 266 234 171 213 267 262 248 243 243 239 228 231 225 221 233 239 241 243 243 246 248 247 248 249 250 252 250 244 241 241 239 238 236 235 234 234 232 231 230 230 231 232 234 235 235 236 236 238 238 236 234 232 231 231 230 229 229 230 232 235 237 240 246 251 246 240 240 245 251 251 249 252 252 245 237 235 240 247 256 264 265 267 270 272 271 272 275 276
204 197 207 218 208 207 200 169 206 249 260 82 192 257 270 290 260 239 229 239 241 219 212 227 231 234 237 240 245 247 247 249 250 250 251 252 244 236 237 237 236 236 235 235 235 234 233 232 231 231 232 233 234 235 235 236 237 238 238 236 234 233 232 232 232 231 232 233 234 237 240 243 248 247 240 237 239 244 246 246 250 250 242 237 236 243 250 253 258 259 259 264 271 271 265 261 256
203 169 181 202 204 207 203 186 215 256 310 291 228 238 280 283 269 232 223 251 253 235 222 226 228 231 234 239 244 246 246 248 250 250 250 251 245 235 233 234 233 235 235 236 236 235 234 233 233 232 232 233 234 234 235 236 236 237 239 238 236 235 234 235 236 235 236 236 236 237 239 241 243 245 242 238 237 239 242 243 248 248 242 241 243 246 248 248 253 257 253 257 267 262 249 234 225
169 152 176 195 194 201 197 181 220 302 319 264 205 150 258 268 252 149 195 243 250 244 231 224 227 232 234 237 243 246 247 246 247 249 248 249 247 239 235 235 235 236 236 236 237 237 237 237 236 235 233 233 234 234 234 235 236 236 238 238 237 235 234 235 237 238 239 239 240 238 238 238 240 244 242 239 238 240 242 241 243 246 246 244 242 240 241 246 254 255 248 253 260 244 223 211 208
116 128 136 147 150 146 146 181 183 121 262 254 193 162 231 271 256 200 201 235 243 248 242 224 227 236 238 238 241 245 247 245 244 245 245 245 244 241 238 237 237 237 237 237 238 238 239 239 238 237 235 234 234 234 234 235 236 236 237 238 237 236 235 235 236 238 237 238 240 239 237 236 240 246 243 239 241 243 243 241 241 248 251 243 235 235 239 245 251 250 244 245 239 220 206 203 201
122 124 115 111 110 96 122 206 127 211 250 247 167 166 209 273 262 218 216 219 221 237 246 237 233 239 242 240 240 243 245 246 244 242 242 243 242 240 239 237 236 236 235 235 236 237 238 238 237 237 236 235 234 235 235 235 236 236 236 237 237 237 236 235 236 237 236 236 237 239 239 236 240 247 243 238 242 244 243 242 241 244 248 244 238 238 240 242 243 239 232 223 212 202 199 199 194
131 138 134 119 113 137 159 155 188 232 243 239 171 177 201 242 256 220 215 194 202 229 237 236 231 234 240 241 241 242 244 248 247 243 242 243 243 241 239 237 235 233 233 232 234 235 236 237 237 236 235 234 234 234 235 235 236 237 237 237 237 237 237 236 237 237 236 235 236 239 240 238 239 245 245 242 241 241 241 243 244 244 247 248 245 240 237 234 229 221 212 204 199 196 195 193 188
153 152 145 129 123 158 203 190 205 238 228 160 216 179 211 241 253 244 235 210 219 238 241 238 230 229 237 240 241 241 242 246 247 246 245 244 245 243 241 239 237 235 233 232 233 235 236 237 236 236 236 235 234 235 235 236 237 238 237 237 238 237 237 237 238 237 236 236 236 238 239 238 238 240 246 250 246 241 242 245 246 247 250 253 248 237 227 218 210 204 200 197 194 193 193 190 186
175 160 155 156 144 165 214 201 217 254 220 184 141 118 249 262 263 246 249 243 231 234 241 246 246 243 242 241 242 242 240 242 243 244 245 245 244 245 244 243 241 240 238 236 236 235 236 237 236 237 237 236 236 235 235 236 236 238 238 238 238 238 237 238 237 237 236 236 237 238 240 241 241 239 245 254 254 245 242 241 240 243 250 254 242 223 210 201 198 199 196 193 193 193 192 188 185
179 173 160 171 162 182 212 199 212 229 139 168 160 164 247 259 39 262 265 268 249 242 246 253 258 255 250 249 250 250 246 242 239 239 240 243 245 246 246 246 245 245 244 241 239 236 236 236 235 236 237 237 237 236 236 236 236 237 238 238 238 237 237 238 238 238 237 237 237 238 240 242 245 246 247 252 256 249 238 236 239 242 246 244 225 206 197 194 195 196 192 191 193 192 190 188 181
196 138 149 212 184 171 182 187 213 168 81 190 188 231 258 286 319 292 269 265 253 249 252 258 261 257 254 255 253 252 251 246 240 238 239 243 247 249 249 250 250 250 249 246 242 237 235 235 234 234 236 237 238 238 237 236 236 237 238 238 238 237 237 238 238 238 238 238 238 238 239 240 244 249 249 248 251 248 238 239 241 240 238 227 210 199 194 193 193 192 191 192 192 191 190 185 172
161 178 189 189 71 73 142 157 72 82 253 226 191 246 281 305 292 272 246 242 229 232 243 248 253 254 255 258 254 248 248 247 244 243 243 245 248 249 250 252 253 254 253 250 246 239 233 232 232 232 232 233 235 237 237 237 237 238 238 239 238 237 238 238 238 237 237 238 237 236 237 238 240 246 249 247 248 246 239 238 238 239 234 218 205 197 193 191 190 189 190 192 192 190 188 180 170
136 188 176 126 33 341 236 230 150 188 245 249 202 242 268 269 272 252 224 239 237 229 232 235 248 251 251 254 253 250 251 253 254 255 254 252 251 249 251 253 256 257 255 251 247 240 231 228 228 229 229 231 233 236 237 238 239 239 240 239 238 238 238 239 238 237 236 236 235 234 233 235 236 240 244 245 247 245 236 230 233 239 231 212 201 196 192 188 188 189 191 192 191 187 184 181 179
154 166 152 145 232 208 187 219 218 207 239 259 223 239 253 231 233 232 204 228 240 246 243 241 256 251 245 250 253 257 262 264 266 268 270 267 260 256 255 255 258 259 256 252 246 237 228 223 224 226 228 231 234 236 237 238 240 240 240 239 239 239 239 238 237 236 235 235 234 232 231 233 233 235 239 241 243 242 232 228 233 234 220 206 199 195 190 187 188 191 193 192 189 186 185 186 191
353 145 159 173 275 202 187 192 207 218 233 254 247 233 247 220 213 225 226 227 239 246 244 241 251 251 255 264 265 267 270 269 268 268 269 268 262 257 253 251 253 255 255 251 242 232 224 221 223 225 227 231 233 235 236 237 239 240 239 239 238 238 238 237 236 235 235 234 233 232 231 232 232 234 238 239 239 239 233 232 235 226 210 203 198 192 189 188 189 192 194 191 187 187 188 190 197
165 173 177 186 179 178 250 204 204 232 228 244 255 250 250 197 179 216 222 228 233 238 244 237 247 265 277 281 276 276 279 277 277 271 266 264 257 250 247 245 245 246 247 244 235 226 221 221 224 225 228 232 234 236 237 238 239 240 239 239 238 238 237 236 236 235 235 235 233 231 232 231 231 235 237 236 236 236 233 233 232 220 208 202 196 191 188 189 191 192 192 190 188 187 191 195 200
182 181 183 189 183 167 196 205 193 205 232 231 255 270 258 168 160 215 217 226 228 226 249 256 261 279 280 271 271 287 295 290 287 284 275 267 258 249 244 242 242 240 237 234 228 222 221 223 225 228 230 233 236 237 238 239 240 240 240 240 238 238 237 236 235 234 234 234 231 231 231 229 232 236 232 230 232 232 231 232 226 215 207 200 194 190 190 191 193 194 191 189 189 190 195 199 203